Flag for United Arab Emirates

Past Weather in Sharjah, Sharjah, United Arab Emirates — Yesterday and Last 2 Weeks

Now
102 °F

Sunny.


Feels Like: 100 °F
Forecast: 96 / 81 °F
Wind: 13 mph from Northwest

Location: Sharjah International Airport
Current Time: Oct 1, 2020 at 4:47:33 pm
Latest Report: Oct 1, 2020 at 4:00 pm
Visibility: 10 mi
Pressure29.74 "Hg
Humidity: 18%
Dew Point: 52 °F
Location of SharjahLocation

Past Weather in Sharjah — Graph

°F

Sharjah Temperature Yesterday

Maximum temperature yesterday: 108 °F (at 1:00 pm)
Minimum temperature yesterday: 81 °F (at 4:00 am)
Average temperature yesterday: 93 °F

High & Low Weather Summary for the Past Weeks

 TemperatureHumidityPressure
High111 °F (Sep 24, 12:00 pm)94% (Sep 22, 7:42 am)29.83 "Hg (Sep 22, 7:42 am)
Low75 °F (Sep 23, 6:00 am)5% (Sep 18, 12:00 pm)29.56 "Hg (Sep 19, 4:00 pm)
Average92 °F51%29.67 "Hg
* Reported Sep 16 3:00 pm — Oct 1 3:00 pm, Sharjah. Weather by CustomWeather, © 2020

Note: Actual official high and low records may vary slightly from our data, if they occured in-between our weather recording intervals... More about our weather records

Sharjah Weather History for the Previous 24 Hours

Scroll right to see more
 ConditionsComfort  
Time TempWeatherWind HumidityBarometerVisibility
3:00 pm
Thu, Oct 1
104 °FSunny.15 mph12%29.77 "Hg10 mi
2:00 pm104 °FSunny.15 mph11%29.77 "Hg10 mi
1:00 pm104 °FSunny.10 mph16%29.77 "Hg10 mi
12:00 pm104 °FSunny.8 mph12%29.80 "Hg10 mi
11:00 am102 °FSunny.10 mph12%29.83 "Hg10 mi
10:00 am100 °FSunny.8 mph14%29.83 "Hg10 mi
9:00 am95 °FSunny.7 mph19%29.83 "Hg10 mi
8:00 am93 °FSunny.2 mph20%29.80 "Hg10 mi
7:00 am90 °FPassing clouds.8 mph24%29.77 "HgN/A
6:00 am88 °FPassing clouds.8 mph35%29.74 "HgN/A
5:00 am84 °FClear.10 mph48%29.71 "Hg10 mi
4:00 am82 °FClear.5 mph51%29.71 "Hg10 mi
3:00 am82 °FClear.6 mph51%29.71 "Hg10 mi
2:00 am86 °FClear.3 mph46%29.71 "Hg10 mi
1:00 am86 °FClear.6 mph52%29.71 "Hg10 mi
12:00 am86 °FClear.6 mph52%29.71 "Hg10 mi
11:00 pm
Wed, Sep 30
88 °FClear.5 mph49%29.74 "Hg10 mi
10:00 pm90 °FClear.5 mph55%29.74 "Hg10 mi
9:00 pm91 °FClear.3 mph56%29.74 "Hg10 mi
8:00 pm93 °FClear.2 mph56%29.71 "Hg10 mi
7:00 pm95 °FClear.6 mph53%29.71 "Hg10 mi
6:00 pm99 °FSunny.6 mph31%29.68 "Hg10 mi
5:00 pm100 °FPassing clouds.9 mph29%29.68 "HgN/A
4:00 pm100 °FSunny.12 mph33%29.65 "Hg10 mi
Weather by CustomWeather, © 2020

See weather overview